• Join FlightAware (Why Join?)
  • Login
  • US Flag GB Flag 
09:54 EDT


 

Airport Tracker/Info


-or-


 

Live Flight TrackerFlight Track Log ✈ UAL1259 ✈ 29-Apr-2013 ✈ KLAX - KSFO

Flight Track Log - Related Links

Times and Time Zones

All times are in EDT time to prevent confusion due to time zone crossing. See the UAL1259 flight status page for this flight to view local times or setup timezone preferences in your user account.

Time Position Orientation Groundspeed Altitude Reporting Facility
EDT Latitude Longitude Course Direction KTS MPH feet Rate Location/Type
21:06 33.9467 -118.4469 301° West 188 216 1,100  Level Los Angeles Center
21:07 33.9389 -118.5239 263° West 216 249 4,200 3,120 Climbing Los Angeles Center
21:08 33.9308 -118.6175 264° West 260 299 7,600 3,120 Climbing Los Angeles Center
21:09 34.0563 -118.8658 296° West  Level FlightAware Approximate
21:09 33.9222 -118.7119 264° West 283 326 10,700  Level Los Angeles Center
21:10 34.0947 -118.9788 287° West  Level FlightAware Approximate
21:10 33.9100 -118.8222 262° West 331 381 13,300  Level Los Angeles Center
21:11 34.1271 -119.0875 301° West  Level FlightAware Approximate
21:11 33.9453 -118.9239 293° West 340 391 16,300  Level Los Angeles Center
21:12 34.0089 -119.0175 309° West 359 413 19,200 2,640 Climbing Los Angeles Center
21:13 34.0756 -119.1186 309° West 384 442 21,800 2,340 Climbing Los Angeles Center
21:14 34.1433 -119.2219 308° West 396 456 24,100 2,280 Climbing Los Angeles Center
21:15 34.2286 -119.3506 309° West 410 472 26,600 2,100 Climbing Los Angeles Center
21:16 34.3014 -119.4603 309° West 420 483 28,500 1,680 Climbing Los Angeles Center
21:17 34.3772 -119.5728 309° West 429 494 30,100 1,560 Climbing Los Angeles Center
21:18 34.4531 -119.6900 308° West 440 506 31,800 1,680 Climbing Los Angeles Center
21:19 34.5314 -119.8031 310° West 437 503 33,600 1,560 Climbing Los Angeles Center
21:20 34.6242 -119.8967 320° Northwest 436 502 35,100 1,500 Climbing Los Angeles Center
21:21 34.7131 -119.9933 318° Northwest 431 496 36,700 1,380 Climbing Los Angeles Center
21:22 34.8183 -120.1086 318° Northwest 425 489 38,000 600 Climbing Los Angeles Center
21:23 34.9097 -120.2069 319° Northwest 433 498 38,000  Level Los Angeles Center
21:24 34.9950 -120.3028 317° Northwest 429 494 38,000 -60 Level Los Angeles Center
21:26 35.0772 -120.3953 317° Northwest 415 478 37,900  Descending Los Angeles Center
21:27 35.1636 -120.4903 318° Northwest 421 484 38,000  Climbing Los Angeles Center
21:28 35.2517 -120.5864 318° Northwest 432 497 37,900  Descending Los Angeles Center
21:29 35.3386 -120.6856 317° Northwest 433 498 38,000  Climbing Los Angeles Center
21:29 35.4156 -120.7742 317° Northwest 430 495 38,000 -60 Level Oakland Center
21:30 35.5042 -120.8736 318° Northwest 426 490 37,900 -60 Descending Oakland Center
21:31 35.5922 -120.9725 318° Northwest 425 489 37,900 -120 Level Oakland Center
21:32 35.6817 -121.0717 318° Northwest 428 493 37,700 -600 Descending Oakland Center
21:33 35.7686 -121.1703 317° Northwest 430 495 36,700 -960 Descending Oakland Center
21:34 35.8572 -121.2722 317° Northwest 436 502 35,800 -1,020 Descending Oakland Center
21:35 35.9433 -121.3725 317° Northwest 425 489 34,700 -1,440 Descending Oakland Center
21:36 36.0272 -121.4689 317° Northwest 413 475 32,900 -2,040 Descending Oakland Center
21:37 36.1242 -121.5803 317° Northwest 395 455 30,600 -2,160 Descending Oakland Center
21:39 36.2044 -121.6661 319° Northwest 384 442 28,600 -1,920 Descending Oakland Center
21:40 36.2892 -121.7378 326° Northwest 370 426 26,700 -1,860 Descending Oakland Center
21:41 36.3708 -121.8100 325° Northwest 358 412 24,900 -1,800 Descending Oakland Center
21:42 36.4464 -121.8767 325° Northwest 350 403 23,100 -1,800 Descending Oakland Center
21:43 36.5397 -121.9061 346° North 351 404 21,300 -1,920 Descending Oakland Center
21:43 36.6333 -121.9333 347° North 330 380 19,500 -1,980 Descending Northern Cal TRACON
21:44 36.7167 -121.9500 351° North 320 368 17,700 -1,800 Descending Northern Cal TRACON
21:45 36.8000 -121.9833 342° North 311 358 16,000 -1,740 Descending Northern Cal TRACON
21:46 36.8833 -122.0000 351° North 306 352 14,300 -1,620 Descending Northern Cal TRACON
21:48 36.9667 -122.0333 342° North 296 341 12,700 -1,200 Descending Northern Cal TRACON
21:48 37.0167 -122.1000 313° West 258 297 12,000 -900 Descending Northern Cal TRACON
21:49 37.0250 -122.1064 329° Northwest 255 293 11,700 -1,260 Descending Oakland Center
21:50 37.0697 -122.1633 315° West 231 266 10,400 -1,380 Descending Oakland Center
21:51 37.1142 -122.2219 314° West 231 266 8,900 -1,260 Descending Oakland Center
21:52 37.1625 -122.2675 323° Northwest 230 265 7,900 -540 Descending Oakland Center
21:53 37.2233 -122.2417 19° North 232 267 7,900 -420 Level Oakland Center
21:54 37.2833 -122.2192 17° North 225 259 7,100 -480 Descending Oakland Center
21:55 37.3456 -122.2089 North 227 261 7,000 -540 Descending Oakland Center
21:56 37.4175 -122.2033 North 219 252 6,100 -900 Descending Oakland Center